Date String (YYYY-MM-DD hh:mm:ss) UTC,Instrument flags,Ambient pressure (hPa),Sample flow (lpm),Bypass flow (lpm),Sample temperature (°C),Ambient temperature (°C),ASC tube jacket temperature (°C),LED temperature (°C),Box temperature (°C),Sample RH (%),Span deviation,Mass concentration (μg/m³),Mass concentration (μg/m³),Mass concentration (μg/m³)
DateTimeUTC,F1_M11,P_M11,Q1_M11,Q2_M11,T1_M11,T2_M11,T3_M11,T4_M11,T5_M11,U1_M11,ZSPAN_M11,X0_M11,X2_M11,X1_M11
2022-04-28 18:00:00,,0821.2,4.98,0.00,29.8,28.7,00.0,38.8,31.6,11.4,0003.5,0029.20,0009.53,0005.38
2022-04-28 18:01:00,,0821.2,5.01,0.00,29.8,28.8,00.0,38.8,31.6,11.4,0003.4,0029.18,0009.50,0005.36
2022-04-28 18:02:00,,0821.2,5.00,0.00,29.8,28.9,00.0,38.8,31.6,11.5,0003.4,0030.23,0009.45,0005.34
2022-04-28 18:03:00,,0821.2,5.00,0.00,29.9,28.9,00.0,38.8,31.6,11.7,0004.0,0030.00,0009.38,0005.32
2022-04-28 18:04:00,,0821.1,5.00,0.00,29.9,29.0,00.0,38.8,31.6,11.6,0004.4,0029.99,0009.42,0005.31
2022-04-28 18:05:00,,0821.1,5.01,0.00,29.9,29.0,00.0,38.8,31.7,11.8,0004.5,0030.47,0009.43,0005.31
2022-04-28 18:06:00,,0821.1,4.99,0.00,29.9,29.1,00.0,38.8,31.7,11.4,0004.5,0038.63,0009.70,0005.35
2022-04-28 18:07:00,,0821.1,5.02,0.00,29.9,29.1,00.0,38.8,31.7,11.3,0004.5,0043.11,0010.01,0005.39
2022-04-28 18:08:00,,0821.1,4.99,0.00,29.9,29.1,00.0,38.8,31.7,11.5,0004.3,0045.18,0010.22,0005.48
2022-04-28 18:09:00,,0821.1,4.99,0.00,29.9,29.2,00.0,38.8,31.7,11.6,0004.0,0045.31,0010.32,0005.55
2022-04-28 18:10:00,,0821.1,5.01,0.00,30.0,29.2,00.0,38.8,31.8,11.4,0003.3,0046.61,0010.31,0005.55
2022-04-28 18:11:00,,0821.1,4.99,0.00,30.0,29.2,00.0,38.8,31.8,11.0,0003.3,0047.29,0010.39,0005.55
2022-04-28 18:12:00,,0821.1,5.01,0.00,30.0,29.3,00.0,38.8,31.8,11.1,0003.7,0046.40,0010.35,0005.54
2022-04-28 18:13:00,,0821.1,5.01,0.00,30.0,29.3,00.0,38.9,31.8,11.2,0004.3,0045.36,0010.34,0005.53
2022-04-28 18:14:00,,0821.0,4.99,0.00,30.0,29.3,00.0,38.9,31.8,11.3,0003.4,0045.25,0010.44,0005.55
2022-04-28 18:15:00,,0821.0,5.01,0.00,30.0,29.4,00.0,38.9,31.9,11.2,0003.6,0046.07,0010.49,0005.58
2022-04-28 18:16:00,,0821.0,5.00,0.00,30.1,29.4,00.0,38.9,31.9,11.2,0003.0,0045.81,0010.50,0005.58
2022-04-28 18:17:00,,0821.1,4.99,0.00,30.1,29.4,00.0,38.9,31.9,11.0,0002.7,0036.37,0010.15,0005.54
2022-04-28 18:18:00,,0821.0,4.99,0.00,30.1,29.4,00.0,38.9,31.9,11.1,0003.2,0031.17,0009.87,0005.49
2022-04-28 18:19:00,,0821.0,5.02,0.00,30.1,29.4,00.0,38.9,31.9,11.0,0003.7,0028.29,0009.63,0005.39
2022-04-28 18:20:00,,0821.0,4.99,0.00,30.1,28.3,00.0,39.0,31.7,11.1,0004.1,0027.82,0009.53,0005.33
2022-04-28 18:21:00,,0820.9,5.01,0.00,30.0,26.2,00.0,38.9,31.3,11.4,0004.7,0026.93,0009.56,0005.35
2022-04-28 18:22:00,,0821.0,4.99,0.00,29.9,26.0,00.0,38.9,31.2,11.4,0004.8,0026.33,0009.61,0005.38
2022-04-28 18:23:00,,0821.0,5.00,0.00,29.8,26.5,00.0,38.8,31.3,11.5,0004.5,0027.41,0009.68,0005.42
2022-04-28 18:24:00,,0820.9,5.01,0.00,29.8,26.9,00.0,38.8,31.4,11.8,0004.5,0028.30,0009.71,0005.45
2022-04-28 18:25:00,,0821.0,5.00,0.00,29.8,27.4,00.0,38.8,31.5,11.3,0004.6,0028.72,0009.68,0005.45
2022-04-28 18:26:00,,0820.9,5.02,0.00,29.8,27.7,00.0,38.8,31.5,11.5,0003.8,0027.81,0009.64,0005.46
2022-04-28 18:27:00,,0820.8,4.99,0.00,29.8,28.0,00.0,38.8,31.5,11.5,0003.6,0027.77,0009.69,0005.47
2022-04-28 18:28:00,,0820.8,5.01,0.00,29.8,28.2,00.0,38.8,31.5,11.3,0003.9,0028.88,0009.79,0005.49
2022-04-28 18:29:00,,0820.9,4.99,0.00,29.8,28.4,00.0,38.7,31.5,11.3,0003.9,0029.92,0009.79,0005.51
2022-04-28 18:30:00,,0820.8,5.01,0.00,29.8,28.5,00.0,38.7,31.6,11.7,0003.8,0030.41,0009.85,0005.53
2022-04-28 18:31:00,,0820.7,5.00,0.00,29.8,28.6,00.0,38.7,31.6,11.6,0003.5,0030.95,0009.96,0005.58
2022-04-28 18:32:00,,0820.7,5.00,0.00,29.8,28.8,00.0,38.7,31.6,11.6,0002.9,0031.38,0010.01,0005.59
2022-04-28 18:33:00,,0820.7,5.02,0.00,29.9,28.9,00.0,38.8,31.7,11.7,0002.9,0032.12,0009.95,0005.59
2022-04-28 18:34:00,,0820.7,4.99,0.00,29.9,28.9,00.0,38.8,31.7,11.4,0003.0,0032.08,0009.94,0005.60
2022-04-28 18:35:00,,0820.7,5.00,0.00,29.9,29.0,00.0,38.8,31.7,11.5,0003.0,0030.92,0009.92,0005.62
2022-04-28 18:36:00,,0820.6,5.00,0.00,29.9,29.0,00.0,38.8,31.7,11.6,0002.7,0032.05,0009.85,0005.63
2022-04-28 18:37:00,,0820.6,5.01,0.00,29.9,29.1,00.0,38.8,31.7,11.6,0003.2,0032.18,0009.89,0005.64
2022-04-28 18:38:00,,0820.6,5.00,0.00,29.9,29.1,00.0,38.8,31.7,11.8,0003.0,0032.66,0009.98,0005.69
2022-04-28 18:39:00,,0820.6,4.99,0.00,29.9,29.2,00.0,38.8,31.8,11.8,0002.6,0032.52,0010.03,0005.70
2022-04-28 18:40:00,,0820.5,5.02,0.00,29.9,28.4,00.0,38.8,31.6,11.8,0002.4,0031.67,0010.01,0005.70
2022-04-28 18:41:00,,0820.5,5.00,0.00,29.8,26.2,00.0,38.8,31.1,11.6,0002.2,0031.82,0009.98,0005.72
2022-04-28 18:42:00,,0820.5,5.01,0.00,29.7,25.5,00.0,38.7,30.9,11.7,0001.5,0031.61,0009.98,0005.73
2022-04-28 18:43:00,,0820.3,5.00,0.00,29.6,26.0,00.0,38.7,31.0,11.7,0001.2,0032.38,0009.92,0005.73
2022-04-28 18:44:00,,0820.3,5.00,0.00,29.6,26.5,00.0,38.6,31.1,11.7,0000.9,0032.23,0010.04,0005.71
2022-04-28 18:45:00,,0820.4,5.01,0.00,29.6,26.9,00.0,38.6,31.2,11.7,0001.7,0032.64,0010.06,0005.70
2022-04-28 18:46:00,,0820.3,4.98,0.00,29.6,27.3,00.0,38.6,31.2,11.8,0002.8,0032.95,0010.17,0005.70
2022-04-28 18:47:00,,0820.3,5.00,0.00,29.6,27.7,00.0,38.6,31.3,11.9,0002.7,0032.23,0010.21,0005.68
2022-04-28 18:48:00,,0820.3,5.01,0.00,29.6,27.9,00.0,38.6,31.4,11.8,0003.0,0031.62,0010.21,0005.67
2022-04-28 18:49:00,,0820.3,4.99,0.00,29.6,28.1,00.0,38.6,31.4,11.1,0003.1,0031.92,0010.18,0005.67
2022-04-28 18:50:00,,0820.3,5.01,0.00,29.6,28.3,00.0,38.6,31.4,11.6,0003.4,0032.43,0010.12,0005.65
2022-04-28 18:51:00,,0820.2,4.99,0.00,29.7,28.4,00.0,38.6,31.4,11.7,0003.7,0032.75,0010.23,0005.66
2022-04-28 18:52:00,,0820.2,5.00,0.00,29.7,28.5,00.0,38.6,31.5,11.5,0003.5,0033.51,0010.27,0005.67
2022-04-28 18:53:00,,0820.2,5.01,0.00,29.7,28.6,00.0,38.6,31.5,11.6,0003.2,0033.93,0010.31,0005.68
2022-04-28 18:54:00,,0820.2,4.99,0.00,29.7,28.7,00.0,38.6,31.5,11.9,0003.3,0033.61,0010.37,0005.67
2022-04-28 18:55:00,,0820.2,5.01,0.00,29.7,28.8,00.0,38.6,31.5,11.5,0003.2,0032.75,0010.28,0005.69
2022-04-28 18:56:00,,0820.1,4.98,0.00,29.7,28.8,00.0,38.6,31.5,11.5,0003.0,0031.83,0010.29,0005.71
2022-04-28 18:57:00,,0820.2,5.00,0.00,29.7,28.9,00.0,38.6,31.6,11.5,0003.3,0031.96,0010.23,0005.73
2022-04-28 18:58:00,,0820.1,5.01,0.00,29.8,28.9,00.0,38.6,31.6,11.7,0002.8,0032.65,0010.36,0005.75
2022-04-28 18:59:00,,0820.0,4.99,0.00,29.8,29.0,00.0,38.7,31.6,11.7,0002.8,0032.09,0010.42,0005.79
